• In Hungary
  • List of Countries
  • For 7 days
  • Water Temperature
  • Satellite Maps
  • Weather Map
  • News
  • Weather Widgets
  • user-avatar
    Login

    Hourly Weather Bibikovo

    Today, 22 July, Sunday

    Time Temperature Precipitation Wind Pressure Humidity
    00:00 +19°C° 0 mm 4 mps 739 mmHg 94%
    01:00 +19°C° 0 mm 4 mps 739 mmHg 95%
    02:00 +18°C° 0 mm 4 mps 739 mmHg 95%
    03:00 +18°C° 0 mm 3 mps 739 mmHg 96%
    04:00 +18°C° 0 mm 4 mps 739 mmHg 94%
    05:00 +19°C° 0 mm 4 mps 739 mmHg 93%
    06:00 +19°C° 0 mm 4 mps 739 mmHg 91%
    07:00 +20°C° 0 mm 4 mps 739 mmHg 88%
    08:00 +21°C° 0 mm 5 mps 739 mmHg 85%
    09:00 +22°C° 0 mm 5 mps 740 mmHg 82%
    10:00 +22°C° 0.1 mm 6 mps 740 mmHg 82%
    11:00 +22°C° 0.1 mm 6 mps 740 mmHg 81%
    12:00 +22°C° 0.1 mm 6 mps 740 mmHg 81%
    13:00 +22°C° 0.1 mm 6 mps 740 mmHg 80%
    14:00 +23°C° 0.1 mm 7 mps 740 mmHg 79%
    15:00 +23°C° 0.1 mm 7 mps 740 mmHg 78%
    16:00 +22°C° 0 mm 7 mps 740 mmHg 80%
    17:00 +21°C° 0 mm 6 mps 740 mmHg 82%
    18:00 +21°C° 0 mm 6 mps 740 mmHg 84%
    19:00 +20°C° 0 mm 6 mps 740 mmHg 84%
    20:00 +20°C° 0 mm 6 mps 740 mmHg 84%
    21:00 +20°C° 0 mm 6 mps 740 mmHg 85%
    22:00 +19°C° 0 mm 6 mps 740 mmHg 85%
    23:00 +19°C° 0 mm 6 mps 740 mmHg 85%

    Tomorrow, 23 July, Monday

    Time Temperature Precipitation Wind Pressure Humidity
    00:00 +17°C° 0 mm 6 mps 740 mmHg 85%
    01:00 +17°C° 0 mm 6 mps 740 mmHg 85%
    02:00 +16°C° 0 mm 6 mps 740 mmHg 85%
    03:00 +16°C° 0 mm 6 mps 740 mmHg 85%
    04:00 +16°C° 0.5 mm 6 mps 740 mmHg 85%
    05:00 +15°C° 0.5 mm 6 mps 740 mmHg 86%
    06:00 +15°C° 0.5 mm 6 mps 740 mmHg 86%
    07:00 +16°C° 0.1 mm 6 mps 740 mmHg 84%
    08:00 +17°C° 0.1 mm 6 mps 740 mmHg 82%
    09:00 +19°C° 0.1 mm 6 mps 740 mmHg 80%
    10:00 +21°C° 0 mm 6 mps 740 mmHg 78%
    11:00 +22°C° 0 mm 6 mps 741 mmHg 76%
    12:00 +24°C° 0 mm 7 mps 741 mmHg 74%
    13:00 +24°C° 0.6 mm 6 mps 741 mmHg 75%
    14:00 +24°C° 0.6 mm 6 mps 741 mmHg 76%
    15:00 +24°C° 0.6 mm 6 mps 741 mmHg 78%
    16:00 +23°C° 0.2 mm 6 mps 741 mmHg 80%
    17:00 +23°C° 0.2 mm 6 mps 741 mmHg 82%
    18:00 +22°C° 0.2 mm 5 mps 741 mmHg 84%
    19:00 +21°C° 0.1 mm 6 mps 741 mmHg 85%
    20:00 +21°C° 0.1 mm 6 mps 741 mmHg 85%
    21:00 +20°C° 0.1 mm 6 mps 742 mmHg 85%
    22:00 +20°C° 0 mm 6 mps 742 mmHg 85%
    23:00 +19°C° 0 mm 6 mps 742 mmHg 84%

    Day after tomorrow, 24 July, Tuesday

    Time Temperature Precipitation Wind Pressure Humidity
    00:00 +19°C° 0 mm 5 mps 742 mmHg 84%
    01:00 +19°C° 0 mm 5 mps 742 mmHg 85%
    02:00 +17°C° 0 mm 5 mps 742 mmHg 87%
    03:00 +18°C° 0 mm 4 mps 742 mmHg 88%
    04:00 +18°C° 0 mm 4 mps 742 mmHg 87%
    05:00 +18°C° 0 mm 4 mps 742 mmHg 86%
    06:00 +18°C° 0 mm 4 mps 743 mmHg 84%
    07:00 +19°C° 0 mm 5 mps 743 mmHg 80%
    08:00 +20°C° 0 mm 5 mps 743 mmHg 76%
    09:00 +22°C° 0 mm 5 mps 743 mmHg 72%
    10:00 +23°C° 0 mm 6 mps 743 mmHg 68%
    11:00 +24°C° 0 mm 6 mps 744 mmHg 65%
    12:00 +26°C° 0 mm 6 mps 744 mmHg 61%
    13:00 +27°C° 0 mm 6 mps 744 mmHg 61%
    14:00 +27°C° 0 mm 6 mps 744 mmHg 61%
    15:00 +27°C° 0 mm 6 mps 744 mmHg 61%
    16:00 +27°C° 0 mm 5 mps 744 mmHg 63%
    17:00 +26°C° 0 mm 5 mps 744 mmHg 65%
    18:00 +26°C° 0 mm 4 mps 745 mmHg 67%
    19:00 +25°C° 0 mm 4 mps 745 mmHg 66%
    20:00 +23°C° 0 mm 5 mps 745 mmHg 65%
    21:00 +22°C° 0 mm 5 mps 745 mmHg 63%
    22:00 +21°C° 0 mm 5 mps 745 mmHg 62%
    23:00 +20°C° 0 mm 5 mps 745 mmHg 61%

    25 July, Wednesday

    Time Temperature Precipitation Wind Pressure Humidity
    00:00 +20°C° 0 mm 4 mps 745 mmHg 60%
    01:00 +20°C° 0 mm 4 mps 745 mmHg 59%
    02:00 +20°C° 0 mm 5 mps 745 mmHg 58%
    03:00 +20°C° 0 mm 5 mps 745 mmHg 57%
    04:00 +19°C° 0 mm 5 mps 746 mmHg 61%
    05:00 +19°C° 0 mm 5 mps 746 mmHg 65%
    06:00 +17°C° 0 mm 5 mps 746 mmHg 70%
    07:00 +20°C° 0 mm 5 mps 746 mmHg 68%
    08:00 +21°C° 0 mm 6 mps 747 mmHg 66%
    09:00 +23°C° 0 mm 6 mps 747 mmHg 64%
    10:00 +24°C° 0 mm 6 mps 747 mmHg 60%
    11:00 +26°C° 0 mm 6 mps 747 mmHg 56%
    12:00 +27°C° 0 mm 6 mps 747 mmHg 52%
    13:00 +27°C° 0 mm 6 mps 747 mmHg 52%
    14:00 +27°C° 0 mm 6 mps 747 mmHg 52%
    15:00 +27°C° 0 mm 5 mps 747 mmHg 53%
    16:00 +27°C° 0 mm 4 mps 747 mmHg 57%
    17:00 +27°C° 0 mm 4 mps 747 mmHg 60%
    18:00 +26°C° 0 mm 3 mps 747 mmHg 64%
    19:00 +25°C° 0 mm 3 mps 747 mmHg 65%
    20:00 +23°C° 0 mm 4 mps 748 mmHg 66%
    21:00 +22°C° 0 mm 4 mps 748 mmHg 68%
    22:00 +21°C° 0 mm 4 mps 748 mmHg 69%
    23:00 +21°C° 0 mm 4 mps 748 mmHg 70%

    26 July, Thursday

    Time Temperature Precipitation Wind Pressure Humidity
    00:00 +20°C° 0 mm 4 mps 748 mmHg 71%
    01:00 +20°C° 0 mm 4 mps 748 mmHg 73%
    02:00 +19°C° 0 mm 4 mps 748 mmHg 75%
    03:00 +19°C° 0 mm 4 mps 748 mmHg 78%
    04:00 +20°C° 0 mm 4 mps 748 mmHg 76%
    05:00 +20°C° 0 mm 5 mps 748 mmHg 75%
    06:00 +20°C° 0 mm 5 mps 749 mmHg 74%
    07:00 +22°C° 0 mm 5 mps 749 mmHg 71%
    08:00 +23°C° 0 mm 6 mps 749 mmHg 69%
    09:00 +24°C° 0 mm 6 mps 749 mmHg 67%
    10:00 +24°C° 0 mm 6 mps 749 mmHg 67%
    11:00 +25°C° 0 mm 5 mps 749 mmHg 67%
    12:00 +26°C° 0 mm 5 mps 749 mmHg 67%
    13:00 +26°C° 0 mm 5 mps 749 mmHg 66%
    14:00 +27°C° 0 mm 5 mps 749 mmHg 65%
    15:00 +27°C° 0 mm 5 mps 749 mmHg 64%
    16:00 +27°C° 0 mm 5 mps 749 mmHg 65%
    17:00 +27°C° 0 mm 5 mps 749 mmHg 66%
    18:00 +27°C° 0 mm 4 mps 750 mmHg 67%
    19:00 +26°C° 0 mm 4 mps 750 mmHg 70%
    20:00 +25°C° 0 mm 4 mps 750 mmHg 74%
    21:00 +22°C° 0 mm 4 mps 750 mmHg 77%
    22:00 +22°C° 0 mm 4 mps 750 mmHg 78%
    23:00 +21°C° 0 mm 3 mps 750 mmHg 78%

    27 July, Friday

    Time Temperature Precipitation Wind Pressure Humidity
    00:00 +21°C° 0 mm 3 mps 750 mmHg 79%
    01:00 +20°C° 0 mm 3 mps 750 mmHg 79%
    02:00 +20°C° 0 mm 3 mps 751 mmHg 79%
    03:00 +19°C° 0 mm 3 mps 751 mmHg 79%
    04:00 +20°C° 0 mm 3 mps 751 mmHg 80%
    05:00 +20°C° 0 mm 4 mps 751 mmHg 80%
    06:00 +20°C° 0 mm 4 mps 751 mmHg 80%
    07:00 +22°C° 0 mm 4 mps 751 mmHg 76%
    08:00 +25°C° 0 mm 4 mps 751 mmHg 71%
    09:00 +26°C° 0 mm 4 mps 751 mmHg 67%
    10:00 +27°C° 0 mm 4 mps 751 mmHg 62%
    11:00 +29°C° 0 mm 4 mps 751 mmHg 57%
    12:00 +30°C° 0 mm 4 mps 751 mmHg 52%
    13:00 +30°C° 0 mm 4 mps 751 mmHg 52%
    14:00 +30°C° 0 mm 4 mps 751 mmHg 52%
    15:00 +30°C° 0 mm 4 mps 751 mmHg 52%
    16:00 +29°C° 0.6 mm 4 mps 750 mmHg 58%
    17:00 +28°C° 0.6 mm 4 mps 750 mmHg 64%
    18:00 +27°C° 0.6 mm 3 mps 750 mmHg 70%
    19:00 +26°C° 0 mm 3 mps 750 mmHg 74%
    20:00 +24°C° 0 mm 3 mps 750 mmHg 78%
    21:00 +22°C° 0 mm 3 mps 751 mmHg 82%
    22:00 +21°C° 0 mm 3 mps 751 mmHg 84%
    23:00 +21°C° 0 mm 3 mps 751 mmHg 86%
    Show more